Weather History for LERT - December, 2013

Change the Weather History Date:

Tuesday, December 17, 2013

  Actual Average Record
Temperature  
Mean Temperature 58 °F -  
Max Temperature 60 °F 56 °F 68 °F (1998)
Min Temperature 55 °F 44 °F 33 °F (2010)
Degree Days  
Heating Degree Days 8    
Growing Degree Days 8 (Base 50)    
Moisture  
Dew Point 54 °F    
Average Humidity 82    
Maximum Humidity 94    
Minimum Humidity 67    
Precipitation  
Precipitation 0.00 in - - ()
Sea Level Pressure  
Sea Level Pressure 30.30 in    
Wind  
Wind Speed 8 mph ()    
Max Wind Speed 13 mph    
Max Gust Speed -    
Visibility 5.4 miles    
Events Rain    
Averages and records for this station are not official NWS values.
T = Trace of Precipitation, MM = Missing Value Source: Averaged Metar Reports

Daily Weather History Graph

Daily Weather History Graph

Search for Another Location

Airport or City:

Trip Planner

Search our weather history database for the weather conditions in past years. The results will help you decide how hot, cold, wet, or windy it might be!

Date:

Astronomy

Dec. 17, 2013 Rise Set
Actual Time 8:31 AM CET 6:11 PM CET
Civil Twilight 8:02 AM CET 6:40 PM CET
Nautical Twilight 7:30 AM CET 7:12 PM CET
Astronomical Twilight 6:58 AM CET 7:44 PM CET
Moon 6:38 PM CET (12/17) 8:18 AM CET (12/17)
Length of Visible Light 10h 37m
Length of Day
9h 39m
Full, 100% of the Moon is Illuminated
Dec 17
Full
Dec 25
Last Quarter
Jan 1
New
Jan 8
First Quarter
Jan 16
Full

Hourly Weather History & Observations

Time (CET) Temp. Dew Point Humidity Pressure Visibility Wind Dir Wind Speed Gust Speed Precip Events Conditions
12:00 AM 59.0 °F 50.0 °F 72% 30.27 in - ESE 10.4 mph - N/A   Clear
1:00 AM 59.0 °F 48.2 °F 67% 30.27 in - ESE 12.7 mph - N/A   Clear
2:00 AM 59.0 °F 50.0 °F 72% 30.27 in - ESE 10.4 mph - N/A   Clear
3:00 AM 59.0 °F 50.0 °F 72% 30.27 in - ESE 10.4 mph - N/A   Clear
4:00 AM 59.0 °F 50.0 °F 72% 30.27 in - SE 11.5 mph - N/A   Clear
5:00 AM 59.0 °F 51.8 °F 77% 30.27 in - SE 9.2 mph - N/A   Clear
6:00 AM 57.2 °F 51.8 °F 82% 30.27 in 6.2 mi ESE 5.8 mph - N/A   Scattered Clouds
7:00 AM 55.4 °F 50.0 °F 82% 30.27 in 6.2 mi East 5.8 mph - N/A   Partly Cloudy
8:00 AM 55.4 °F 50.0 °F 82% 30.30 in 6.2 mi ESE 4.6 mph - N/A   Scattered Clouds
9:00 AM 59.0 °F 51.8 °F 77% 30.30 in 6.2 mi SE 9.2 mph - N/A   Mostly Cloudy
10:00 AM 59.0 °F 51.8 °F 77% 30.33 in 6.2 mi ESE 6.9 mph - N/A   Overcast
11:00 AM 60.8 °F 53.6 °F 77% 30.36 in 6.2 mi SE 8.1 mph - N/A   Mostly Cloudy
12:00 PM 60.8 °F 53.6 °F 77% 30.36 in 6.2 mi SE 9.2 mph - N/A   Mostly Cloudy
1:00 PM 60.8 °F 53.6 °F 77% 30.33 in 6.2 mi SSE 9.2 mph - N/A   Mostly Cloudy
2:00 PM 60.8 °F 53.6 °F 77% 30.30 in 6.2 mi SSE 10.4 mph - N/A   Mostly Cloudy
3:00 PM 60.8 °F 53.6 °F 77% 30.27 in 6.2 mi SSE 12.7 mph - N/A   Mostly Cloudy
4:00 PM 60.8 °F 57.2 °F 88% 30.30 in 5.6 mi SSE 10.4 mph - N/A Rain Light Rain
4:19 PM 60.8 °F 57.2 °F 88% 30.30 in 2.2 mi SSE 8.1 mph - N/A Rain Light Rain
5:00 PM 60.8 °F 59.0 °F 94% 30.30 in 3.1 mi South 8.1 mph - N/A Rain Light Rain
5:19 PM 60.8 °F 59.0 °F 94% 30.30 in 3.1 mi South 11.5 mph - N/A Rain Light Rain
6:00 PM 60.8 °F 57.2 °F 88% 30.30 in 5.0 mi South 9.2 mph - N/A   Scattered Clouds
7:00 PM 60.8 °F 57.2 °F 88% 30.30 in 5.0 mi SSW 5.8 mph - N/A   Partly Cloudy
8:00 PM 60.8 °F 59.0 °F 94% 30.33 in 5.0 mi South 5.8 mph - N/A   Scattered Clouds
9:00 PM 59.0 °F 57.2 °F 94% 30.33 in 5.6 mi South 3.5 mph - N/A   Mostly Cloudy
10:00 PM 59.0 °F 57.2 °F 94% 30.33 in 5.6 mi Variable 2.3 mph - N/A   Mostly Cloudy
11:00 PM 60.8 °F 59.0 °F 94% 30.33 in 6.2 mi Variable 2.3 mph - N/A   Scattered Clouds